Volver al catálogo

ATLAS 5 CENTAUR DEB

LostHEO
NORAD 49354·DEBRIS·🇺🇸 United States

Lanzado Oct 17, 2018 desde Cape Canaveral Space Force Station

Loading…

Próximos Pases (próximas 24 horas)

TLE

ObsoletoSource: Space-Track

Época: Jun 22, 2022, 06:46 UTC

1 49354U 18079FF  22173.28219752 -.00000058  00000-0  00000+0 0  9994
2 49354  10.2434 188.9384 4692614  22.7434 352.7143  1.70007481  5048

Sigue ATLAS 5 CENTAUR DEB en tiempo real con AllMySat

Download on the App Store